| time (UTC) | temp F | wind direction | speed MPH | gust MPH | rain 1hr in | rain 24hr in | rain mn in | humidity % | barometer mb |
| 20260905000016 | 91 | 200 | 11.0 | 18.0 | 0.00 | 0.00 | 0.00 | 13 | 1002.9 |
| 20260904234521 | 92 | 193 | 8.0 | 16.0 | 0.00 | 0.00 | 0.00 | 13 | 1002.9 |
| 20260904233016 | 92 | 177 | 10.0 | 15.0 | 0.00 | 0.00 | 0.00 | 13 | 1002.7 |
| 20260904231516 | 92 | 187 | 9.0 | 16.0 | 0.00 | 0.00 | 0.00 | 13 | 1002.8 |
| 20260904230016 | 92 | 196 | 9.0 | 15.0 | 0.00 | 0.00 | 0.00 | 12 | 1002.9 |
| 20260904224515 | 92 | 190 | 7.0 | 11.0 | 0.00 | 0.00 | 0.00 | 13 | 1002.8 |
| 20260904223014 | 92 | 205 | 5.0 | 11.0 | 0.00 | 0.00 | 0.00 | 13 | 1002.8 |
| 20260904221512 | 92 | 157 | 7.0 | 17.0 | 0.00 | 0.00 | 0.00 | 13 | 1002.9 |
| 20260904220011 | 92 | 168 | 6.0 | 22.0 | 0.00 | 0.00 | 0.00 | 13 | 1002.9 |
| 20260904214509 | 91 | 201 | 12.0 | 22.0 | 0.00 | 0.00 | 0.00 | 13 | 1003.1 |
| 20260904213008 | 92 | 170 | 9.0 | 17.0 | 0.00 | 0.00 | 0.00 | 13 | 1003.2 |
| 20260904211507 | 91 | 177 | 13.0 | 21.0 | 0.00 | 0.00 | 0.00 | 13 | 1003.3 |
| 20260904210006 | 91 | 246 | 11.0 | 20.0 | 0.00 | 0.00 | 0.00 | 13 | 1003.4 |
| 20260904204505 | 91 | 204 | 9.0 | 15.0 | 0.00 | 0.00 | 0.00 | 14 | 1003.4 |
| 20260904203007 | 89 | 183 | 9.0 | 23.0 | 0.00 | 0.00 | 0.00 | 14 | 1003.5 |
| 20260904201503 | 90 | 210 | 8.0 | 19.0 | 0.00 | 0.00 | 0.00 | 13 | 1003.8 |
| 20260904200003 | 89 | 196 | 14.0 | 21.0 | 0.00 | 0.00 | 0.00 | 13 | 1003.8 |
| 20260904194600 | 89 | 171 | 10.0 | 18.0 | 0.00 | 0.00 | 0.00 | 14 | 1003.9 |
| 20260904193057 | 89 | 176 | 12.0 | 18.0 | 0.00 | 0.00 | 0.00 | 14 | 1004.1 |
| 20260904190052 | 88 | 199 | 12.0 | 18.0 | 0.00 | 0.00 | 0.00 | 13 | 1004.1 |
| 20260904184553 | 87 | 189 | 14.0 | 20.0 | 0.00 | 0.00 | 0.00 | 14 | 1004.4 |
| 20260904183046 | 87 | 192 | 11.0 | 16.0 | 0.00 | 0.00 | 0.00 | 14 | 1004.6 |
| 20260904180042 | 86 | 178 | 11.0 | 17.0 | 0.00 | 0.00 | 0.00 | 15 | 1004.8 |
| 20260904174541 | 86 | 173 | 8.0 | 17.0 | 0.00 | 0.00 | 0.00 | 17 | 1004.8 |
| 20260904173037 | 86 | 175 | 6.0 | 15.0 | 0.00 | 0.00 | 0.00 | 16 | 1004.7 |
| 20260904170033 | 84 | 161 | 9.0 | 19.0 | 0.00 | 0.00 | 0.00 | 17 | 1004.7 |
| 20260904164532 | 83 | 137 | 10.0 | 18.0 | 0.00 | 0.00 | 0.00 | 22 | 1004.7 |
| 20260904163044 | 82 | 149 | 11.0 | 15.0 | 0.00 | 0.00 | 0.00 | 22 | 1004.8 |
| 20260904160022 | 78 | 121 | 1.0 | 5.0 | 0.00 | 0.00 | 0.00 | 25 | 1005.0 |
| 20260904154519 | 75 | 320 | 0.0 | 3.0 | 0.00 | 0.00 | 0.00 | 26 | 1005.2 |
| 20260904153013 | 72 | 127 | 0.0 | 1.0 | 0.00 | 0.00 | 0.00 | 27 | 1005.3 |
| 20260904150006 | 69 | 128 | 0.0 | 2.0 | 0.00 | 0.00 | 0.00 | 30 | 1005.2 |
| 20260904144501 | 66 | 135 | 0.0 | 1.0 | 0.00 | 0.00 | 0.00 | 31 | 1005.1 |
| 20260904143120 | 63 | 125 | 0.0 | 1.0 | 0.00 | 0.00 | 0.00 | 34 | 1005.2 |
| 20260904140059 | 57 | 125 | 0.0 | 1.0 | 0.00 | 0.00 | 0.00 | 38 | 1005.2 |
| 20260904134559 | 55 | 26 | 0.0 | 1.0 | 0.00 | 0.00 | 0.00 | 41 | 1005.0 |
| 20260904133108 | 53 | 137 | 0.0 | 0.0 | 0.00 | 0.00 | 0.00 | 42 | 1004.9 |
| 20260904130105 | 51 | 249 | 0.0 | 1.0 | 0.00 | 0.00 | 0.00 | 42 | 1004.6 |
| 20260904124551 | 53 | 248 | 0.0 | 1.0 | 0.00 | 0.00 | 0.00 | 40 | 1004.4 |
| 20260904123052 | 53 | 132 | 3.0 | 4.0 | 0.00 | 0.00 | 0.00 | 40 | 1004.3 |
| 20260904120049 | 53 | 345 | 0.0 | 0.0 | 0.00 | 0.00 | 0.00 | 40 | 1004.1 |
| 20260904114548 | 53 | 345 | 0.0 | 0.0 | 0.00 | 0.00 | 0.00 | 39 | 1004.2 |
| 20260904113043 | 54 | 74 | 0.0 | 2.0 | 0.00 | 0.00 | 0.00 | 39 | 1004.1 |
| 20260904110041 | 54 | 276 | 0.0 | 1.0 | 0.00 | 0.00 | 0.00 | 39 | 1003.7 |
| 20260904104539 | 55 | 260 | 0.0 | 1.0 | 0.00 | 0.00 | 0.00 | 38 | 1003.8 |
| 20260904103042 | 55 | 253 | 1.0 | 6.0 | 0.00 | 0.00 | 0.00 | 38 | 1003.7 |
| 20260904100034 | 55 | 213 | 1.0 | 3.0 | 0.00 | 0.00 | 0.00 | 38 | 1003.7 |
| 20260904094533 | 56 | 263 | 3.0 | 4.0 | 0.00 | 0.00 | 0.00 | 37 | 1003.7 |
| 20260904093033 | 57 | 249 | 2.0 | 6.0 | 0.00 | 0.00 | 0.00 | 36 | 1003.7 |
| 20260904090028 | 56 | 233 | 1.0 | 3.0 | 0.00 | 0.00 | 0.00 | 36 | 1003.5 |
| 20260904084527 | 57 | 130 | 0.0 | 1.0 | 0.00 | 0.00 | 0.00 | 35 | 1003.4 |
| 20260904083027 | 57 | 130 | 0.0 | 1.0 | 0.00 | 0.00 | 0.00 | 35 | 1003.3 |
| 20260904080029 | 60 | 125 | 0.0 | 1.0 | 0.00 | 0.00 | 0.00 | 33 | 1003.3 |
| 20260904074524 | 60 | 124 | 0.0 | 1.0 | 0.00 | 0.00 | 0.00 | 34 | 1003.4 |
| 20260904073022 | 60 | 109 | 0.0 | 0.0 | 0.00 | 0.00 | 0.00 | 34 | 1003.4 |
| 20260904070019 | 61 | 263 | 2.0 | 3.0 | 0.00 | 0.00 | 0.00 | 31 | 1003.4 |
| 20260904064517 | 64 | 137 | 0.0 | 4.0 | 0.00 | 0.00 | 0.00 | 29 | 1003.4 |
| 20260904063017 | 63 | 201 | 1.0 | 8.0 | 0.00 | 0.00 | 0.00 | 30 | 1003.3 |
| 20260904060013 | 64 | 246 | 1.0 | 2.0 | 0.00 | 0.00 | 0.00 | 28 | 1003.2 |
| 20260904054527 | 65 | 175 | 0.0 | 0.0 | 0.00 | 0.00 | 0.00 | 27 | 1003.3 |
| 20260904053013 | 65 | 170 | 2.0 | 3.0 | 0.00 | 0.00 | 0.00 | 27 | 1003.3 |
| 20260904050010 | 68 | 159 | 3.0 | 3.0 | 0.00 | 0.00 | 0.00 | 25 | 1003.0 |
| 20260904044512 | 68 | 140 | 1.0 | 2.0 | 0.00 | 0.00 | 0.00 | 25 | 1002.9 |
| 20260904043009 | 70 | 126 | 0.0 | 1.0 | 0.00 | 0.00 | 0.00 | 24 | 1002.9 |
| 20260904040011 | 70 | 140 | 3.0 | 5.0 | 0.00 | 0.00 | 0.00 | 23 | 1002.9 |
| 20260904034509 | 72 | 201 | 1.0 | 3.0 | 0.00 | 0.00 | 0.00 | 24 | 1002.8 |
| 20260904033013 | 73 | 125 | 2.0 | 4.0 | 0.00 | 0.00 | 0.00 | 23 | 1002.8 |
| 20260904030006 | 75 | 127 | 4.0 | 5.0 | 0.00 | 0.00 | 0.00 | 21 | 1002.5 |
| 20260904024506 | 77 | 128 | 5.0 | 8.0 | 0.00 | 0.00 | 0.00 | 20 | 1002.4 |
| 20260904023005 | 76 | 156 | 3.0 | 6.0 | 0.00 | 0.00 | 0.00 | 22 | 1002.2 |
| 20260904020005 | 78 | 139 | 4.0 | 6.0 | 0.00 | 0.00 | 0.00 | 20 | 1001.7 |
| 20260904014505 | 79 | 155 | 3.0 | 6.0 | 0.00 | 0.00 | 0.00 | 20 | 1001.6 |
| 20260904013003 | 82 | 152 | 4.0 | 9.0 | 0.00 | 0.00 | 0.00 | 20 | 1001.4 |
| 20260904010008 | 85 | 142 | 6.0 | 10.0 | 0.00 | 0.00 | 0.00 | 17 | 1001.4 |
| 20260904004502 | 86 | 144 | 4.0 | 9.0 | 0.00 | 0.00 | 0.00 | 18 | 1001.5 |
| 20260904003002 | 86 | 129 | 6.0 | 14.0 | 0.00 | 0.00 | 0.00 | 17 | 1001.5 |